Regional Weather Roundup
Issued by NWS

Home | Current Version | Previous Version | Text Only | Print | Product List | Glossary On
Versions: 1 2 3 4 5 6 7 8 9 10 11 12 13 14 15 16 17 18 19 20 21 22 23 24 25 26 27 28 29 30 31 32 33 34 35 36 37 38 39 40 41 42 43 44 45 46 47 48 49 50
000
ASUS44 KOUN 211410
RWROK

WEATHER ROUNDUP FOR OKLAHOMA
NATIONAL WEATHER SERVICE NORMAN OK
900 AM CDT THU AUG 21 2014

NOTE: "FAIR" INDICATES FEW OR NO CLOUDS BELOW 12,000 FEET WITH NO
      SIGNIFICANT WEATHER AND/OR OBSTRUCTIONS TO VISIBILITY.

OKZ001>007-009>012-014-015-017-211500-
NORTHWEST OKLAHOMA AND THE PANHANDLE

CITY           SKY/WX    TMP DP  RH WIND       PRES   REMARKS
GAGE           SUNNY     82  63  52 S21G30    29.93S
$$

OKZ016-021>023-033>039-044-045-211500-
SOUTHWEST OKLAHOMA

CITY           SKY/WX    TMP DP  RH WIND       PRES   REMARKS
LAWTON/REGL    SUNNY     83  69  62 S13       29.99R
LAWTON/FT SILL SUNNY     83  70  64 S15G22    29.98R
FREDERICK      SUNNY     84  69  60 S21       29.95S
CLINTON        SUNNY     82  64  54 S23G29    29.98S
HOBART         SUNNY     83  67  58 S18G28    29.98R
ALTUS AFB      SUNNY     83  69  64 S18       29.97R
$$

OKZ018>020-024>031-211500-
CENTRAL OKLAHOMA

CITY           SKY/WX    TMP DP  RH WIND       PRES   REMARKS
OKLAHOMA CITY  SUNNY     81  70  69 S17       29.98S
OKC/WILEY POST SUNNY     82  70  66 S16G28    29.97S
OKC/TINKER AFB SUNNY     80  70  71 S18G24    29.99S
STILLWATER     SUNNY     83  70  64 S9        29.95F
GUTHRIE        SUNNY     83  70  64 S16G23    29.96S
$$

OKZ008-013-054>072-211500-
NORTHEAST OKLAHOMA

CITY           SKY/WX    TMP DP  RH WIND       PRES   REMARKS
TULSA          MOSUNNY   82  72  71 S15       29.97R
TULSA/JONES    SUNNY     83  72  69 S12G21    29.98S
PONCA CITY     SUNNY     81  70  69 S7        29.94S
BARTLESVILLE   SUNNY     81  72  74 S9        29.98R
MUSKOGEE       SUNNY     81  72  74 S14       30.02S
$$

OKZ032-040>043-046>053-073>077-211500-
SOUTH CENTRAL/SOUTHEAST OKLAHOMA

CITY           SKY/WX    TMP DP  RH WIND       PRES   REMARKS
ARDMORE/DWNTWN MOSUNNY   81  70  69 S14G20    30.02S
MCALESTER      MOSUNNY   80  73  79 S10G17    30.03S
$$



USA.gov is the U.S. government's official web portal to all federal, state and local government web resources and services.